When you browse on this site, cookies collect data to enhance your experience and personalize the content and advertising you see.
Visit our Privacy Policy to learn more. By continuing to use the site, you agree to this use of cookies and data.
  • En España
  • Lista de países
  • Para 7 días
  • Temperatura del agua
  • Mapa Satelital
  • El tiempo en el mapa
  • Informadores
  • user-avatar
    Iniciar sesión

    Tiempo cada hora Bocharovschina

    Hoy, 27 Mayo, Lunes

    Tiempo Temperatura Precipitaciones Viento Presión Humedad
    00:00 +10°C° 0 mm 3 mps 741 mmHg 89%
    01:00 +9°C° 0 mm 3 mps 741 mmHg 91%
    02:00 +9°C° 0 mm 3 mps 742 mmHg 92%
    03:00 +8°C° 0 mm 4 mps 742 mmHg 91%
    04:00 +8°C° 0 mm 4 mps 742 mmHg 90%
    05:00 +8°C° 0 mm 4 mps 742 mmHg 90%
    06:00 +10°C° 0 mm 4 mps 742 mmHg 87%
    07:00 +10°C° 0 mm 5 mps 742 mmHg 85%
    08:00 +12°C° 0 mm 5 mps 742 mmHg 82%
    09:00 +14°C° 0 mm 5 mps 743 mmHg 78%
    10:00 +16°C° 0 mm 6 mps 743 mmHg 75%
    11:00 +18°C° 0 mm 7 mps 743 mmHg 71%
    12:00 +19°C° 0.1 mm 6 mps 743 mmHg 71%
    13:00 +20°C° 0.1 mm 6 mps 743 mmHg 70%
    14:00 +21°C° 0.1 mm 6 mps 743 mmHg 70%
    15:00 +21°C° 0.6 mm 6 mps 743 mmHg 73%
    16:00 +20°C° 0.6 mm 5 mps 743 mmHg 77%
    17:00 +20°C° 0.6 mm 4 mps 743 mmHg 80%
    18:00 +19°C° 0.3 mm 4 mps 743 mmHg 82%
    19:00 +18°C° 0.3 mm 3 mps 743 mmHg 85%
    20:00 +17°C° 0.3 mm 3 mps 743 mmHg 88%
    21:00 +16°C° 0 mm 3 mps 743 mmHg 89%
    22:00 +14°C° 0 mm 3 mps 744 mmHg 91%
    23:00 +14°C° 0 mm 3 mps 744 mmHg 93%

    Mañana, 28 Mayo, Martes

    Tiempo Temperatura Precipitaciones Viento Presión Humedad
    00:00 +14°C° 0 mm 3 mps 744 mmHg 93%
    01:00 +13°C° 0 mm 3 mps 744 mmHg 94%
    02:00 +13°C° 0 mm 3 mps 744 mmHg 94%
    03:00 +14°C° 0 mm 3 mps 744 mmHg 95%
    04:00 +14°C° 0 mm 3 mps 744 mmHg 95%
    05:00 +14°C° 0 mm 3 mps 745 mmHg 95%
    06:00 +17°C° 0 mm 3 mps 745 mmHg 91%
    07:00 +19°C° 0 mm 3 mps 745 mmHg 88%
    08:00 +20°C° 0 mm 4 mps 745 mmHg 84%
    09:00 +22°C° 0.1 mm 5 mps 744 mmHg 79%
    10:00 +23°C° 0.1 mm 5 mps 744 mmHg 74%
    11:00 +24°C° 0.1 mm 6 mps 744 mmHg 69%
    12:00 +24°C° 0.3 mm 6 mps 744 mmHg 70%
    13:00 +24°C° 0.3 mm 6 mps 744 mmHg 71%
    14:00 +24°C° 0.3 mm 6 mps 744 mmHg 72%
    15:00 +24°C° 0 mm 6 mps 744 mmHg 72%
    16:00 +24°C° 0 mm 6 mps 743 mmHg 71%
    17:00 +24°C° 0 mm 6 mps 743 mmHg 70%
    18:00 +23°C° 0 mm 6 mps 743 mmHg 72%
    19:00 +22°C° 0 mm 6 mps 743 mmHg 74%
    20:00 +21°C° 0 mm 6 mps 744 mmHg 76%
    21:00 +20°C° 0 mm 6 mps 744 mmHg 77%
    22:00 +20°C° 0 mm 5 mps 744 mmHg 77%
    23:00 +20°C° 0 mm 5 mps 744 mmHg 77%

    Pasado mañana, 29 Mayo, Miércoles

    Tiempo Temperatura Precipitaciones Viento Presión Humedad
    00:00 +19°C° 0 mm 5 mps 744 mmHg 80%
    01:00 +19°C° 0 mm 5 mps 744 mmHg 83%
    02:00 +19°C° 0 mm 5 mps 744 mmHg 85%
    03:00 +17°C° 0 mm 5 mps 744 mmHg 85%
    04:00 +17°C° 0 mm 5 mps 744 mmHg 85%
    05:00 +17°C° 0 mm 5 mps 744 mmHg 86%
    06:00 +19°C° 0 mm 6 mps 744 mmHg 81%
    07:00 +21°C° 0 mm 6 mps 744 mmHg 77%
    08:00 +22°C° 0 mm 7 mps 745 mmHg 72%
    09:00 +23°C° 0 mm 7 mps 745 mmHg 69%
    10:00 +23°C° 0 mm 7 mps 745 mmHg 66%
    11:00 +24°C° 0 mm 7 mps 745 mmHg 62%
    12:00 +24°C° 0 mm 7 mps 745 mmHg 64%
    13:00 +24°C° 0 mm 6 mps 745 mmHg 66%
    14:00 +25°C° 0 mm 5 mps 745 mmHg 68%
    15:00 +25°C° 0 mm 5 mps 745 mmHg 70%
    16:00 +25°C° 0 mm 5 mps 745 mmHg 72%
    17:00 +25°C° 0 mm 4 mps 745 mmHg 74%
    18:00 +23°C° 0 mm 4 mps 745 mmHg 77%
    19:00 +22°C° 0 mm 4 mps 745 mmHg 80%
    20:00 +21°C° 0 mm 4 mps 745 mmHg 83%
    21:00 +20°C° 0.4 mm 4 mps 745 mmHg 86%
    22:00 +20°C° 0.4 mm 3 mps 745 mmHg 88%
    23:00 +19°C° 0.4 mm 3 mps 745 mmHg 91%

    30 Mayo, Jueves

    Tiempo Temperatura Precipitaciones Viento Presión Humedad
    00:00 +19°C° 0 mm 3 mps 745 mmHg 92%
    01:00 +19°C° 0 mm 3 mps 745 mmHg 92%
    02:00 +18°C° 0 mm 3 mps 745 mmHg 93%
    03:00 +19°C° 0.3 mm 3 mps 745 mmHg 93%
    04:00 +19°C° 0.3 mm 3 mps 745 mmHg 92%
    05:00 +19°C° 0.3 mm 3 mps 745 mmHg 92%
    06:00 +20°C° 0.5 mm 3 mps 746 mmHg 89%
    07:00 +21°C° 0.5 mm 4 mps 746 mmHg 86%
    08:00 +22°C° 0.5 mm 4 mps 746 mmHg 83%
    09:00 +23°C° 1.3 mm 4 mps 746 mmHg 80%
    10:00 +25°C° 1.3 mm 4 mps 746 mmHg 77%
    11:00 +25°C° 1.3 mm 4 mps 746 mmHg 74%
    12:00 +26°C° 1 mm 4 mps 746 mmHg 74%
    13:00 +26°C° 1 mm 4 mps 746 mmHg 75%
    14:00 +26°C° 1 mm 4 mps 746 mmHg 75%
    15:00 +25°C° 0.9 mm 3 mps 746 mmHg 78%
    16:00 +25°C° 0.9 mm 3 mps 746 mmHg 81%
    17:00 +24°C° 0.9 mm 2 mps 746 mmHg 84%
    18:00 +23°C° 1 mm 2 mps 746 mmHg 86%
    19:00 +21°C° 1 mm 2 mps 746 mmHg 88%
    20:00 +20°C° 1 mm 2 mps 746 mmHg 90%
    21:00 +19°C° 0.1 mm 2 mps 746 mmHg 91%
    22:00 +19°C° 0.1 mm 2 mps 746 mmHg 92%
    23:00 +18°C° 0.1 mm 2 mps 746 mmHg 93%

    31 Mayo, Viernes

    Tiempo Temperatura Precipitaciones Viento Presión Humedad
    00:00 +18°C° 0 mm 2 mps 746 mmHg 94%
    01:00 +17°C° 0 mm 2 mps 746 mmHg 95%
    02:00 +17°C° 0 mm 2 mps 746 mmHg 95%
    03:00 +17°C° 0 mm 2 mps 746 mmHg 95%
    04:00 +18°C° 0 mm 2 mps 746 mmHg 95%
    05:00 +18°C° 0 mm 2 mps 746 mmHg 96%
    06:00 +19°C° 0.3 mm 2 mps 746 mmHg 92%
    07:00 +21°C° 0.3 mm 2 mps 746 mmHg 88%
    08:00 +24°C° 0.3 mm 2 mps 746 mmHg 84%
    09:00 +25°C° 0.7 mm 3 mps 746 mmHg 78%
    10:00 +26°C° 0.7 mm 4 mps 746 mmHg 72%
    11:00 +27°C° 0.7 mm 5 mps 746 mmHg 66%
    12:00 +27°C° 0.2 mm 5 mps 745 mmHg 65%
    13:00 +28°C° 0.2 mm 5 mps 745 mmHg 65%
    14:00 +28°C° 0.2 mm 5 mps 745 mmHg 65%
    15:00 +27°C° 0.7 mm 4 mps 745 mmHg 71%
    16:00 +26°C° 0.7 mm 3 mps 745 mmHg 78%
    17:00 +25°C° 0.7 mm 3 mps 745 mmHg 84%
    18:00 +24°C° 0.1 mm 3 mps 745 mmHg 86%
    19:00 +22°C° 0.1 mm 3 mps 744 mmHg 89%
    20:00 +21°C° 0.1 mm 3 mps 744 mmHg 91%
    21:00 +21°C° 0.7 mm 3 mps 744 mmHg 91%
    22:00 +20°C° 0.7 mm 3 mps 744 mmHg 91%
    23:00 +20°C° 0.7 mm 3 mps 744 mmHg 91%

    1 Junio, Sábado

    Tiempo Temperatura Precipitaciones Viento Presión Humedad
    00:00 +20°C° 0.5 mm 3 mps 744 mmHg 92%
    01:00 +19°C° 0.5 mm 3 mps 744 mmHg 93%
    02:00 +19°C° 0.5 mm 3 mps 744 mmHg 94%
    03:00 +19°C° 0.1 mm 3 mps 744 mmHg 94%
    04:00 +19°C° 0.1 mm 3 mps 744 mmHg 94%
    05:00 +19°C° 0.1 mm 2 mps 744 mmHg 94%
    06:00 +20°C° 0.9 mm 3 mps 744 mmHg 91%
    07:00 +21°C° 0.9 mm 3 mps 745 mmHg 87%
    08:00 +22°C° 0.9 mm 3 mps 745 mmHg 84%
    09:00 +22°C° 1.3 mm 3 mps 745 mmHg 83%
    10:00 +22°C° 1.3 mm 3 mps 745 mmHg 83%
    11:00 +24°C° 1.3 mm 3 mps 746 mmHg 82%
    12:00 +21°C° 1.3 mm 4 mps 746 mmHg 86%
    13:00 +20°C° 1.3 mm 4 mps 746 mmHg 90%
    14:00 +17°C° 1.3 mm 5 mps 746 mmHg 94%
    15:00 +16°C° 2.2 mm 5 mps 746 mmHg 94%
    16:00 +16°C° 2.2 mm 5 mps 746 mmHg 94%
    17:00 +15°C° 2.2 mm 5 mps 746 mmHg 94%
    18:00 +14°C° 0.3 mm 5 mps 747 mmHg 94%
    19:00 +14°C° 0.3 mm 5 mps 747 mmHg 93%
    20:00 +13°C° 0.3 mm 4 mps 748 mmHg 93%
    21:00 +12°C° 0.3 mm 5 mps 748 mmHg 92%
    22:00 +11°C° 0.3 mm 6 mps 749 mmHg 92%
    23:00 +10°C° 0.3 mm 6 mps 749 mmHg 91%
    Mostrar más